Location: Brookview Estates
(36.0476°N, 86.6931°W)
Time: 03:25:36
(UTC+00:00)

Cosmos 371 Rocket - Pass Details

Date: 30 March 2020
Orbit: 683 x 700 km, 74.0° (Epoch: 06 June)

Event Time Altitude Azimuth Distance (km) Brightness Sun altitude
Rises 00:52:13 0° 340° (NNW) 3,057 7.1 -9.9°
Reaches altitude 10° 00:54:32 10° 339° (NNW) 2,140 6.3 -10.4°
Maximum altitude 00:59:21 76° 254° (WSW) 713 3.5 -11.3°
Drops below altitude 10° 01:04:09 10° 169° (S) 2,136 5.6 -12.3°
Sets 01:06:27 0° 168° (SSE) 3,052 6.3 -12.7°
